This demonstration page uses our WeatherBlox Daily Observations layout. Learn more.

Left ArrowRight Arrow

Hourly Observations for August 16, 2021

Temp ( °F °C ) Dew Point ( °F °C ) Humidity (%) Winds ( mph kmh ) Pressure ( in mb ) Visibility ( mi km ) Precip ( " mm )
12:59 am 00:59 Cloudy 78 25.6 72 22.2 82 82 SE 7 11 30.16 1022 9 14 0.00 0.00
1:59 am 01:59 Cloudy 78 25.6 72 22.2 82 82 E 5 7 30.15 1021 9 14 0.00 0.00
2:59 am 02:59 Cloudy 78 25.6 73 22.8 85 85 E 5 7 30.13 1020 9 14 0.00 0.00
3:59 am 03:59 Mostly Cloudy 78 25.6 73 22.8 85 85 Calm 30.13 1020 9 14 0.00 0.00
4:59 am 04:59 Mostly Cloudy 77 25 73 22.8 88 88 E 3 6 30.13 1020 9 14 0.00 0.00
5:59 am 05:59 Mostly Cloudy 78 25.6 73 22.8 85 85 Calm 30.13 1020 8 13 0.00 0.00
6:59 am 06:59 Mostly Cloudy 78 25.6 73 22.8 85 85 Calm 30.14 1021 7 11 0.00 0.00
7:59 am 07:59 Mostly Cloudy 79 26.1 74 23.3 85 85 E 5 7 30.14 1021 8 13 0.00 0.00
8:59 am 08:59 Mostly Cloudy 81 27.2 73 22.8 77 77 E 6 9 30.15 1021 9 14 0.00 0.00
9:59 am 09:59 Mostly Cloudy 82 27.8 74 23.3 77 77 E 6 9 30.16 1021 8 13 0.00 0.00
10:59 am 10:59 Cloudy 83 28.3 73 22.8 72 72 SE 5 7 30.16 1022 9 14 0.00 0.00
11:59 am 11:59 Cloudy 85 29.4 72 22.2 65 65 SE 6 9 30.16 1021 10 16 0.00 0.00
12:59 pm 12:59 Mostly Cloudy 85 29.4 75 23.9 72 72 E 12 19 30.14 1021 9 14 0.00 0.00
1:57 pm 13:57 Mostly Cloudy with Thunderstorms 81 27 73 23 79 79 ENE 13 20 30.13 1020 8 13 0.00 0.00
1:59 pm 13:59 Mostly Cloudy with Thunderstorms 81 27.2 74 23.3 79 79 ENE 13 20 30.13 1020 8 13 0.00 0.00
2:28 pm 14:28 Mostly Cloudy with Thunderstorms 80 26.7 75 23.9 85 85 NE 8 13 30.13 1020 2 3 0.05 1.27
2:39 pm 14:39 Mostly Cloudy with Thunderstorms 77 25 72 22.2 85 85 W 15 24 30.15 1021 1 2 0.16 4.06
2:41 pm 14:41 Mostly Cloudy with Strong Thunderstorms 76 24.4 71 21.7 85 85 W 13 20 30.15 1021 1 1 0.31 7.87
2:49 pm 14:49 Mostly Cloudy with Strong Thunderstorms 77 25 71 21.7 82 82 NNW 12 19 30.14 1021 0 0 1.16 29.46
2:59 pm 14:59 Mostly Cloudy with Strong Thunderstorms 78 25.6 71 21.7 79 79 VRB 5 7 30.13 1020 0 0 1.58 40.13
3:08 pm 15:08 Mostly Cloudy with Thunderstorms 77 25 72 22.2 85 85 E 6 9 30.13 1020 1 1 0.10 2.54
3:21 pm 15:21 Mostly Cloudy with Thunderstorms 77 25 73 22.8 88 88 E 3 6 30.13 1020 10 16 0.10 2.54
3:59 pm 15:59 Mostly Cloudy 80 26.7 74 23.3 82 82 ESE 6 9 30.11 1020 10 16 0.10 2.54
4:59 pm 16:59 Mostly Cloudy 83 28.3 75 23.9 77 77 E 10 17 30.10 1019 9 14 0.00 0.00
5:59 pm 17:59 Mostly Cloudy 82 27.8 75 23.9 79 79 E 9 15 30.11 1020 9 14 0.00 0.00
6:59 pm 18:59 Mostly Cloudy 82 27.8 74 23.3 77 77 E 8 13 30.12 1020 9 14 0.00 0.00
7:59 pm 19:59 Mostly Cloudy 80 26.7 74 23.3 82 82 SE 6 9 30.13 1020 8 13 0.00 0.00
8:59 pm 20:59 Mostly Cloudy 79 26.1 74 23.3 85 85 ESE 5 7 30.12 1020 9 14 0.00 0.00
9:59 pm 21:59 Mostly Cloudy 79 26.1 74 23.3 85 85 ESE 5 7 30.13 1020 10 16 0.00 0.00
10:59 pm 22:59 Cloudy 78 25.6 73 22.8 85 85 ESE 6 9 30.13 1020 10 16 0.00 0.00
11:59 pm 23:59 Mostly Cloudy 78 25.6 73 22.8 85 85 ESE 6 9 30.14 1021 9 14 0.00 0.00

Powered by AerisWeather